• In Czech Republic
  • List of Countries
  • For 7 days
  • Water Temperature
  • Satellite Maps
  • Weather Map
  • Weather Widgets
  • user-avatar
    Login

    Hourly Weather Hobart

    Today, 22 September, Friday

    Time Temperature Precipitation Wind Pressure Humidity
    00:00 +8°C° 0 mm 3 mps 741 mmHg 85%
    01:00 +8°C° 0 mm 3 mps 741 mmHg 84%
    02:00 +8°C° 0 mm 3 mps 741 mmHg 85%
    03:00 +7°C° 0 mm 3 mps 741 mmHg 86%
    04:00 +7°C° 0 mm 3 mps 741 mmHg 87%
    05:00 +8°C° 0 mm 3 mps 741 mmHg 87%
    06:00 +8°C° 0 mm 3 mps 741 mmHg 86%
    07:00 +8°C° 0 mm 3 mps 742 mmHg 85%
    08:00 +10°C° 0 mm 3 mps 742 mmHg 77%
    09:00 +12°C° 0 mm 2 mps 742 mmHg 70%
    10:00 +13°C° 0 mm 3 mps 742 mmHg 61%
    11:00 +15°C° 0 mm 2 mps 742 mmHg 56%
    12:00 +16°C° 0 mm 2 mps 742 mmHg 51%
    13:00 +18°C° 0 mm 1 mps 741 mmHg 46%
    14:00 +17°C° 0 mm 2 mps 741 mmHg 49%
    15:00 +17°C° 0 mm 2 mps 741 mmHg 51%
    16:00 +17°C° 0 mm 3 mps 741 mmHg 54%
    17:00 +15°C° 0.3 mm 2 mps 741 mmHg 67%
    18:00 +13°C° 0.3 mm 2 mps 741 mmHg 80%
    19:00 +10°C° 0.3 mm 2 mps 741 mmHg 94%
    20:00 +10°C° 0 mm 2 mps 741 mmHg 94%
    21:00 +9°C° 0 mm 2 mps 740 mmHg 94%
    22:00 +9°C° 0 mm 2 mps 740 mmHg 95%
    23:00 +9°C° 0.2 mm 3 mps 740 mmHg 94%

    Tomorrow, 23 September, Saturday

    Time Temperature Precipitation Wind Pressure Humidity
    00:00 +9°C° 0.2 mm 3 mps 739 mmHg 94%
    01:00 +9°C° 0.2 mm 3 mps 738 mmHg 94%
    02:00 +9°C° 0.2 mm 3 mps 738 mmHg 94%
    03:00 +9°C° 0.2 mm 3 mps 737 mmHg 94%
    04:00 +9°C° 0.2 mm 3 mps 736 mmHg 93%
    05:00 +10°C° 0.1 mm 3 mps 736 mmHg 92%
    06:00 +10°C° 0.1 mm 3 mps 735 mmHg 91%
    07:00 +11°C° 0.1 mm 3 mps 735 mmHg 90%
    08:00 +13°C° 0 mm 4 mps 734 mmHg 81%
    09:00 +17°C° 0 mm 4 mps 734 mmHg 73%
    10:00 +19°C° 0 mm 4 mps 733 mmHg 64%
    11:00 +19°C° 0.8 mm 3 mps 733 mmHg 70%
    12:00 +18°C° 0.8 mm 3 mps 732 mmHg 75%
    13:00 +17°C° 0.8 mm 2 mps 731 mmHg 80%
    14:00 +19°C° 0 mm 2 mps 730 mmHg 72%
    15:00 +20°C° 0 mm 3 mps 728 mmHg 63%
    16:00 +21°C° 0 mm 3 mps 727 mmHg 54%
    17:00 +19°C° 0.3 mm 3 mps 727 mmHg 64%
    18:00 +17°C° 0.3 mm 3 mps 726 mmHg 73%
    19:00 +14°C° 0.3 mm 3 mps 726 mmHg 83%
    20:00 +13°C° 0.8 mm 3 mps 726 mmHg 84%
    21:00 +12°C° 0.8 mm 4 mps 726 mmHg 86%
    22:00 +11°C° 0.8 mm 4 mps 727 mmHg 87%
    23:00 +9°C° 0 mm 5 mps 727 mmHg 86%

    Day after tomorrow, 24 September, Sunday

    Time Temperature Precipitation Wind Pressure Humidity
    00:00 +9°C° 0 mm 5 mps 727 mmHg 85%
    01:00 +9°C° 0 mm 5 mps 727 mmHg 83%
    02:00 +10°C° 0 mm 4 mps 727 mmHg 82%
    03:00 +10°C° 0 mm 4 mps 726 mmHg 81%
    04:00 +10°C° 0 mm 4 mps 726 mmHg 79%
    05:00 +10°C° 0.1 mm 4 mps 726 mmHg 78%
    06:00 +10°C° 0.1 mm 4 mps 726 mmHg 76%
    07:00 +10°C° 0.1 mm 5 mps 726 mmHg 75%
    08:00 +12°C° 0 mm 5 mps 726 mmHg 70%
    09:00 +13°C° 0 mm 6 mps 726 mmHg 64%
    10:00 +14°C° 0 mm 7 mps 726 mmHg 59%
    11:00 +14°C° 0.1 mm 7 mps 726 mmHg 61%
    12:00 +14°C° 0.1 mm 7 mps 726 mmHg 62%
    13:00 +13°C° 0.1 mm 8 mps 726 mmHg 63%
    14:00 +12°C° 0.2 mm 7 mps 726 mmHg 67%
    15:00 +13°C° 0.2 mm 6 mps 726 mmHg 71%
    16:00 +11°C° 0.2 mm 6 mps 726 mmHg 75%
    17:00 +10°C° 0.1 mm 5 mps 726 mmHg 80%
    18:00 +10°C° 0.1 mm 4 mps 727 mmHg 85%
    19:00 +9°C° 0.1 mm 3 mps 727 mmHg 90%
    20:00 +9°C° 0 mm 3 mps 728 mmHg 90%
    21:00 +9°C° 0 mm 3 mps 729 mmHg 91%
    22:00 +8°C° 0 mm 4 mps 729 mmHg 91%
    23:00 +7°C° 0 mm 4 mps 730 mmHg 90%

    25 September, Monday

    Time Temperature Precipitation Wind Pressure Humidity
    00:00 +7°C° 0 mm 5 mps 730 mmHg 88%
    01:00 +5°C° 0 mm 6 mps 731 mmHg 87%
    02:00 +5°C° 0.1 mm 6 mps 731 mmHg 86%
    03:00 +5°C° 0.1 mm 6 mps 731 mmHg 85%
    04:00 +5°C° 0.1 mm 6 mps 732 mmHg 84%
    05:00 +5°C° 0.1 mm 6 mps 732 mmHg 84%
    06:00 +5°C° 0.1 mm 6 mps 732 mmHg 84%
    07:00 +6°C° 0.1 mm 5 mps 733 mmHg 84%
    08:00 +7°C° 0 mm 6 mps 733 mmHg 78%
    09:00 +6°C° 0 mm 7 mps 733 mmHg 71%
    10:00 +8°C° 0 mm 7 mps 734 mmHg 65%
    11:00 +8°C° 0 mm 7 mps 734 mmHg 62%
    12:00 +9°C° 0 mm 7 mps 734 mmHg 59%
    13:00 +9°C° 0 mm 8 mps 734 mmHg 56%
    14:00 +9°C° 0.1 mm 7 mps 734 mmHg 60%
    15:00 +9°C° 0.1 mm 7 mps 734 mmHg 65%
    16:00 +8°C° 0.1 mm 7 mps 734 mmHg 69%
    17:00 +8°C° 0.7 mm 7 mps 735 mmHg 77%
    18:00 +6°C° 0.7 mm 7 mps 736 mmHg 86%
    19:00 +5°C° 0.7 mm 7 mps 737 mmHg 94%
    20:00 +5°C° 0.3 mm 7 mps 738 mmHg 94%
    21:00 +4°C° 0.3 mm 6 mps 739 mmHg 94%
    22:00 +4°C° 0.3 mm 6 mps 739 mmHg 94%
    23:00 +3°C° 0.1 mm 6 mps 740 mmHg 94%

    26 September, Tuesday

    Time Temperature Precipitation Wind Pressure Humidity
    00:00 +3°C° 0.1 mm 5 mps 740 mmHg 95%
    01:00 +2°C° 0.1 mm 5 mps 741 mmHg 95%
    02:00 +1°C° 0 mm 5 mps 741 mmHg 96%
    03:00 +1°C° 0 mm 5 mps 742 mmHg 96%
    04:00 +1°C° 0 mm 4 mps 742 mmHg 96%
    05:00 +1°C° 0 mm 4 mps 742 mmHg 95%
    06:00 +1°C° 0 mm 4 mps 743 mmHg 94%
    07:00 +1°C° 0 mm 4 mps 743 mmHg 93%
    08:00 +4°C° 0 mm 4 mps 744 mmHg 81%
    09:00 +6°C° 0 mm 4 mps 744 mmHg 70%
    10:00 +8°C° 0 mm 4 mps 744 mmHg 58%
    11:00 +8°C° 0.1 mm 4 mps 744 mmHg 58%
    12:00 +10°C° 0.1 mm 4 mps 744 mmHg 58%
    13:00 +10°C° 0.1 mm 3 mps 744 mmHg 57%
    14:00 +10°C° 0.1 mm 3 mps 744 mmHg 59%
    15:00 +10°C° 0.1 mm 3 mps 744 mmHg 60%
    16:00 +10°C° 0.1 mm 3 mps 744 mmHg 62%
    17:00 +8°C° 0.1 mm 3 mps 745 mmHg 68%
    18:00 +5°C° 0.1 mm 3 mps 745 mmHg 75%
    19:00 +3°C° 0.1 mm 3 mps 746 mmHg 81%
    20:00 +2°C° 0 mm 3 mps 746 mmHg 85%
    21:00 +2°C° 0 mm 3 mps 746 mmHg 88%
    22:00 +1°C° 0 mm 3 mps 747 mmHg 91%
    23:00 +1°C° 0 mm 3 mps 747 mmHg 91%

    27 September, Wednesday

    Time Temperature Precipitation Wind Pressure Humidity
    00:00 +1°C° 0 mm 3 mps 747 mmHg 91%
    01:00 +1°C° 0 mm 3 mps 747 mmHg 91%
    02:00 +1°C° 0 mm 3 mps 747 mmHg 91%
    03:00 +1°C° 0 mm 3 mps 747 mmHg 91%
    04:00 +1°C° 0 mm 3 mps 747 mmHg 91%
    05:00 +2°C° 0 mm 3 mps 747 mmHg 88%
    06:00 +2°C° 0 mm 3 mps 747 mmHg 85%
    07:00 +3°C° 0 mm 3 mps 748 mmHg 82%
    08:00 +5°C° 0 mm 3 mps 748 mmHg 72%
    09:00 +9°C° 0 mm 2 mps 748 mmHg 62%
    10:00 +12°C° 0 mm 2 mps 748 mmHg 51%
    11:00 +13°C° 0 mm 2 mps 747 mmHg 47%
    12:00 +14°C° 0 mm 2 mps 747 mmHg 43%
    13:00 +16°C° 0 mm 2 mps 747 mmHg 39%
    14:00 +15°C° 0 mm 2 mps 746 mmHg 42%
    15:00 +15°C° 0 mm 2 mps 746 mmHg 45%
    16:00 +13°C° 0 mm 3 mps 746 mmHg 48%
    17:00 +11°C° 0 mm 3 mps 745 mmHg 56%
    18:00 +10°C° 0 mm 3 mps 745 mmHg 65%
    19:00 +8°C° 0 mm 3 mps 745 mmHg 73%
    20:00 +7°C° 0 mm 3 mps 745 mmHg 76%
    21:00 +5°C° 0 mm 3 mps 744 mmHg 79%
    22:00 +5°C° 0 mm 3 mps 744 mmHg 83%
    23:00 +5°C° 0.1 mm 3 mps 743 mmHg 85%
    Show more